Stations météo

réclame
Mon MeteoGroup
Geisenheim, Allemagne (10628): Température de l'air & dewpoint: 14.10.2018 05:00:00 - 20.10.2018 05:00:00 (CEST)Geisenheim, Allemagne (10628): Température de l'air 5cm & Température de l'air -5cm: 14.10.2018 05:00:00 - 20.10.2018 05:00:00 (CEST)Geisenheim, Allemagne (10628): Température de l'air -20cm & Température de l'air -100cm: 14.10.2018 05:00:00 - 20.10.2018 05:00:00 (CEST)Geisenheim, Allemagne (10628): Vitesse du vent & gusts: 14.10.2018 05:00:00 - 20.10.2018 05:00:00 (CEST)Geisenheim, Allemagne (10628): Direction du vent: 14.10.2018 05:00:00 - 20.10.2018 05:00:00 (CEST)Geisenheim, Allemagne (10628): reduced air pressure: 14.10.2018 05:00:00 - 20.10.2018 05:00:00 (CEST)Geisenheim, Allemagne (10628): visibility: 14.10.2018 05:00:00 - 20.10.2018 05:00:00 (CEST)Geisenheim, Allemagne (10628): Ensoleillement: 14.10.2018 05:00:00 - 20.10.2018 05:00:00 (CEST)Geisenheim, Allemagne (10628): Quantités de précipitations: 14.10.2018 05:00:00 - 20.10.2018 05:00:00 (CEST)
Date & Time tt [°C] td [°C] tt 5cm [°C] tt -5cm [°C] tt -20cm [°C] tt -100cm [°C] ff [km/h] ff [knt] fx [km/h] fx [knt] dd ppp [hPa] vv [km] sd [min] rr [mm]
20.10.2018 05:00:00 - - - - - - - - - - - - - - -
20.10.2018 04:00:00 12,9 9,7 11,9 13,4 15,6 16,8 9 5 24 13 NNW 1026,1 11 0 0,0
20.10.2018 03:00:00 12,5 10,0 11,4 13,3 15,7 16,9 4 2 13 7 NW 1026,0 14 0 0,0
20.10.2018 02:00:00 12,6 10,5 11,8 13,3 15,9 16,9 6 4 12 6 W 1026,0 13 0 0,0
20.10.2018 01:00:00 11,2 9,7 7,7 13,7 16,1 16,9 3 1 8 5 ESE 1025,6 13 0 0,0
20.10.2018 00:00:00 12,8 10,1 10,4 14,1 16,4 16,9 5 3 10 6 NW 1025,4 17 0 0,0
19.10.2018 23:00:00 12,8 9,9 10,8 14,6 16,5 16,9 7 4 12 6 NNW 1025,3 21 0 0,0
19.10.2018 22:00:00 12,1 9,4 10,9 15,0 16,7 16,9 3 2 14 8 NW 1025,1 20 0 0,0
19.10.2018 21:00:00 11,5 9,2 8,9 15,7 16,9 16,9 4 2 14 8 WSW 1024,6 22 0 0,0
19.10.2018 20:00:00 13,1 9,3 11,5 16,6 16,9 16,9 11 6 14 8 N 1024,0 24 0 0,0
19.10.2018 19:00:00 14,6 9,7 12,7 17,7 16,9 16,9 9 5 10 6 N 1023,0 23 0 0,0
19.10.2018 18:00:00 17,4 9,8 16,5 18,8 16,7 16,9 5 3 14 8 ENE 1022,5 24 50 0,0
19.10.2018 17:00:00 18,5 9,8 19,5 19,3 16,4 16,9 9 5 16 8 E 1022,5 21 60 0,0
19.10.2018 16:00:00 18,7 9,7 21,3 19,2 16,1 16,9 9 5 16 9 SE 1022,5 20 60 0,0
19.10.2018 15:00:00 17,8 9,4 19,4 18,7 15,7 16,9 10 5 18 10 E 1022,8 20 60 0,0
19.10.2018 14:00:00 17,8 9,7 20,9 17,9 15,4 16,9 8 4 16 9 E 1023,2 23 59 0,0
19.10.2018 13:00:00 17,2 10,0 20,5 16,9 15,1 16,9 8 5 16 9 E 1023,9 24 50 0,0
19.10.2018 12:00:00 16,4 10,0 19,3 15,5 15,0 16,9 10 5 16 9 E 1024,0 18 60 0,0
19.10.2018 11:00:00 15,7 9,7 17,1 14,1 14,9 16,9 4 2 9 5 SSE 1024,2 22 38 0,0
19.10.2018 10:00:00 13,1 9,5 13,5 13,4 14,9 16,9 6 3 9 5 W 1024,3 22 0 0,0
19.10.2018 09:00:00 12,1 9,4 12,2 13,1 15,0 16,9 5 3 7 4 WNW 1023,8 28 0 0,0
19.10.2018 08:00:00 11,5 9,3 11,4 12,9 15,1 16,9 5 3 7 4 W 1023,7 26 0 0,0
19.10.2018 07:00:00 11,3 9,1 11,1 12,7 15,2 16,9 3 2 5 3 W 1023,4 33 0 0,0
19.10.2018 06:00:00 10,9 8,3 9,6 12,7 15,4 16,9 2 1 7 4 S 1023,3 45 0 0,0
19.10.2018 05:00:00 10,8 8,3 10,1 12,8 15,6 16,9 7 4 12 7 N 1023,1 45 0 0,0
19.10.2018 04:00:00 11,4 9,3 8,9 13,1 15,8 16,9 3 2 6 4 WSW 1023,0 25 0 0,0
19.10.2018 03:00:00 11,8 8,3 10,5 13,0 16,0 16,9 4 2 12 6 WNW 1023,2 53 0 0,0
19.10.2018 02:00:00 10,2 7,6 6,9 13,3 16,2 16,9 4 2 10 6 N 1023,3 49 0 0,0
19.10.2018 01:00:00 12,7 8,0 7,9 13,7 16,5 16,9 3 2 9 5 WSW 1023,4 49 0 0,0
19.10.2018 00:00:00 12,8 8,3 9,5 14,3 16,7 16,9 4 2 11 6 E 1023,4 49 0 0,0
18.10.2018 23:00:00 12,9 9,9 8,8 14,9 16,9 16,9 5 3 9 5 N 1023,6 19 0 0,0
18.10.2018 22:00:00 13,6 10,5 9,9 15,6 17,1 16,9 4 2 16 8 NE 1023,0 16 0 0,0
18.10.2018 21:00:00 14,3 11,3 12,2 16,2 17,2 16,9 9 5 16 9 N 1022,6 13 0 0,0
18.10.2018 20:00:00 15,1 11,7 12,8 16,9 17,3 16,9 8 4 12 7 N 1022,3 11 0 0,0
18.10.2018 19:00:00 15,9 12,0 13,2 17,8 17,2 16,9 5 3 25 13 SE 1021,9 10 0 0,0
18.10.2018 18:00:00 17,5 11,8 17,0 18,6 17,1 16,9 18 10 30 16 N 1021,1 12 52 0,0
18.10.2018 17:00:00 18,4 11,6 18,5 19,1 16,8 16,9 19 11 37 20 N 1021,0 15 15 0,0
18.10.2018 16:00:00 19,0 11,5 19,8 19,5 16,5 16,9 22 12 36 19 N 1020,9 18 32 0,0
18.10.2018 15:00:00 19,6 11,7 20,4 19,7 16,1 16,9 15 8 24 13 N 1020,8 23 33 0,0
18.10.2018 14:00:00 20,7 11,1 24,0 18,4 15,7 16,9 4 2 17 9 N 1021,0 18 60 0,0
18.10.2018 13:00:00 18,9 11,3 22,2 16,8 15,5 16,9 11 6 27 14 N 1021,3 16 60 0,0
18.10.2018 12:00:00 16,9 11,3 19,4 15,5 15,3 16,9 17 9 29 16 N 1021,7 13 60 0,0
18.10.2018 11:00:00 15,6 10,9 17,1 14,3 15,3 16,9 21 11 33 18 N 1022,0 11 60 0,0
18.10.2018 10:00:00 14,0 11,0 14,7 13,5 15,4 16,9 23 13 35 19 N 1021,7 7 60 0,0
18.10.2018 09:00:00 13,0 10,7 12,7 13,2 15,5 16,9 10 6 19 11 N 1021,4 6 21 0,0
18.10.2018 08:00:00 13,1 10,6 11,9 13,3 15,6 17,0 10 6 19 10 N 1020,7 7 0 0,0
18.10.2018 07:00:00 13,8 10,9 11,3 13,4 15,8 17,0 5 3 14 7 NW 1019,9 10 0 0,0
18.10.2018 06:00:00 14,1 10,9 11,8 13,4 16,0 17,0 6 4 11 6 WNW 1019,7 10 0 0,0
18.10.2018 05:00:00 12,8 10,5 9,7 13,5 16,2 17,0 3 1 5 3 W 1019,7 17 0 0,0
18.10.2018 04:00:00 12,5 10,3 9,4 13,8 16,4 17,0 4 2 5 3 W 1019,8 25 0 0,0
18.10.2018 03:00:00 12,0 9,6 9,4 14,0 16,6 17,0 3 1 8 4 SSW 1020,0 30 0 0,0
18.10.2018 02:00:00 12,0 9,5 8,9 14,4 16,8 17,0 0 0 5 3 N 1020,0 26 0 0,0
18.10.2018 01:00:00 13,3 10,0 10,5 14,9 17,0 17,0 4 2 7 4 W 1019,9 37 0 0,0
18.10.2018 00:00:00 13,7 10,7 10,0 15,3 17,2 17,0 3 2 6 3 W 1019,8 38 0 0,0
17.10.2018 23:00:00 14,4 10,2 10,8 15,9 17,4 17,0 3 2 10 5 W 1019,6 42 0 0,0
17.10.2018 22:00:00 14,5 9,1 13,0 16,5 17,5 17,0 7 4 10 5 NW 1019,5 48 0 0,0
17.10.2018 21:00:00 14,7 9,0 12,8 17,2 17,6 17,0 6 4 11 6 NW 1019,0 49 0 0,0
17.10.2018 20:00:00 16,0 9,6 12,4 18,2 17,6 17,0 3 1 13 7 NW 1018,6 49 0 0,0
17.10.2018 19:00:00 17,8 10,1 16,3 19,3 17,5 17,0 11 6 13 7 N 1018,2 50 0 0,0
17.10.2018 18:00:00 21,5 9,2 18,6 20,4 17,2 17,0 3 2 4 2 NE 1017,7 54 45 0,0
17.10.2018 17:00:00 22,7 9,9 23,4 20,7 16,8 17,0 3 1 9 5 SE 1017,7 46 60 0,0
17.10.2018 16:00:00 22,8 10,4 24,4 20,4 16,4 17,0 5 3 9 5 S 1017,8 51 60 0,0
17.10.2018 15:00:00 21,6 9,4 24,0 19,7 15,9 17,0 4 2 12 6 SE 1018,3 50 60 0,0
17.10.2018 14:00:00 20,6 10,0 23,9 18,6 15,5 17,0 4 2 9 5 S 1018,8 31 60 0,0
17.10.2018 13:00:00 19,2 9,8 22,0 16,9 15,2 17,0 4 2 7 4 SE 1019,4 27 60 0,0
17.10.2018 12:00:00 16,1 9,7 19,1 15,2 15,1 17,0 5 3 8 5 SSW 1020,1 33 60 0,0
17.10.2018 11:00:00 13,6 9,2 15,7 13,5 15,1 17,0 5 3 8 5 SW 1020,1 31 60 0,0
17.10.2018 10:00:00 10,9 8,0 12,1 12,4 15,2 17,0 4 2 5 3 SW 1020,2 23 60 0,0
17.10.2018 09:00:00 9,6 7,7 9,8 11,8 15,4 17,0 4 2 8 4 S 1020,2 18 37 0,0
17.10.2018 08:00:00 9,0 8,2 6,0 11,9 15,7 17,0 1 1 4 2 SSE 1020,1 17 0 0,0
17.10.2018 07:00:00 8,9 8,1 6,0 12,3 15,9 17,0 3 1 5 3 NNW 1020,0 26 0 0,0
17.10.2018 06:00:00 9,3 8,5 6,4 12,7 16,2 17,0 4 2 5 3 S 1019,9 20 0 0,0
17.10.2018 05:00:00 9,7 8,6 6,7 13,1 16,4 17,0 3 2 4 2 WSW 1019,6 21 0 0,0
17.10.2018 04:00:00 10,4 9,0 7,3 13,6 16,7 17,0 3 2 5 3 SW 1019,7 23 0 0,0
17.10.2018 03:00:00 11,0 9,2 7,6 14,1 17,0 17,0 2 1 5 3 WSW 1019,8 27 0 0,0
17.10.2018 02:00:00 12,3 10,4 9,5 14,7 17,2 17,0 5 3 8 5 WSW 1019,8 27 0 0,0
17.10.2018 01:00:00 13,0 10,8 9,3 15,2 17,4 17,0 4 2 6 3 W 1020,0 31 0 0,0
17.10.2018 00:00:00 13,4 10,7 10,7 15,8 17,7 17,0 5 3 9 5 WNW 1020,1 36 0 0,0
16.10.2018 23:00:00 14,4 10,2 10,4 16,4 17,9 17,0 4 2 7 4 NW 1020,0 54 0 0,0
16.10.2018 22:00:00 14,9 10,5 12,5 17,0 18,1 17,0 6 3 7 4 WNW 1019,9 39 0 0,0
16.10.2018 21:00:00 15,8 10,3 11,8 17,9 18,2 17,0 3 2 13 7 NNW 1019,7 49 0 0,0
16.10.2018 20:00:00 16,7 10,2 12,9 19,0 18,1 17,0 6 3 13 7 N 1019,3 47 0 0,0
16.10.2018 19:00:00 18,8 10,3 17,0 20,3 18,0 17,0 11 6 13 7 N 1018,6 48 5 0,0
16.10.2018 18:00:00 23,8 9,7 22,6 21,5 17,6 17,0 3 2 8 4 ENE 1018,1 49 60 0,0
16.10.2018 17:00:00 24,9 8,9 26,4 21,9 17,2 17,0 3 2 8 4 NE 1018,1 47 60 0,0
16.10.2018 16:00:00 24,7 8,3 27,9 21,6 16,7 17,0 3 2 8 5 SSW 1018,2 45 60 0,0
16.10.2018 15:00:00 24,0 9,2 26,6 20,7 16,1 17,0 5 3 10 5 S 1018,3 37 60 0,0
16.10.2018 14:00:00 22,3 8,5 26,2 19,2 15,7 17,0 6 4 11 6 SE 1018,8 16 60 0,0
16.10.2018 13:00:00 20,1 9,6 23,3 17,3 15,3 17,0 3 2 7 4 SE 1019,1 39 60 0,0
16.10.2018 12:00:00 17,2 9,0 20,1 15,3 15,1 16,9 4 2 9 5 S 1019,4 29 60 0,0
16.10.2018 11:00:00 14,2 9,0 16,6 13,5 15,1 16,9 6 3 8 5 W 1019,6 35 60 0,0
16.10.2018 10:00:00 11,5 8,2 13,6 12,2 15,3 16,9 4 2 5 3 SW 1019,9 26 59 0,0
16.10.2018 09:00:00 9,3 6,5 9,0 11,7 15,5 16,9 0 0 5 3 N 1019,6 22 39 0,0
16.10.2018 08:00:00 8,5 7,8 5,6 12,0 15,8 16,9 2 1 4 2 W 1019,0 16 0 0,0
16.10.2018 07:00:00 8,8 8,0 6,1 12,4 16,0 16,9 3 1 4 2 E 1018,6 24 0 0,0
16.10.2018 06:00:00 9,2 8,0 6,4 12,8 16,3 16,9 2 1 5 3 WNW 1018,3 21 0 0,0
16.10.2018 05:00:00 10,4 9,0 7,5 13,3 16,6 16,9 4 2 8 5 WSW 1017,8 26 0 0,0
16.10.2018 04:00:00 10,1 8,5 7,2 13,7 16,8 16,9 4 2 8 4 SW 1017,6 21 0 0,0
16.10.2018 03:00:00 11,5 9,8 9,1 14,1 17,1 16,9 5 3 6 4 W 1017,1 26 0 0,0
16.10.2018 02:00:00 11,8 9,8 8,1 14,6 17,4 16,9 3 1 7 4 W 1017,0 31 0 0,0
16.10.2018 01:00:00 12,7 10,2 8,9 15,2 17,6 16,9 4 2 6 3 W 1016,6 32 0 0,0
16.10.2018 00:00:00 13,6 10,5 9,6 15,8 17,9 16,9 4 2 8 4 WSW 1016,2 34 0 0,0
15.10.2018 23:00:00 13,9 10,6 11,9 16,4 18,1 16,9 7 4 9 5 W 1016,1 34 0 0,0
15.10.2018 22:00:00 14,9 9,9 12,1 17,1 18,3 16,9 6 3 10 5 WNW 1015,7 39 0 0,0
15.10.2018 21:00:00 15,6 9,8 12,1 18,0 18,4 16,9 5 3 9 5 NNW 1015,3 40 0 0,0
15.10.2018 20:00:00 16,9 10,4 12,3 19,2 18,4 16,9 4 2 15 8 N 1015,0 43 0 0,0
15.10.2018 19:00:00 18,7 10,4 16,6 20,5 18,3 16,9 11 6 13 7 N 1014,5 41 15 0,0
15.10.2018 18:00:00 23,1 9,7 22,7 21,7 18,0 16,9 6 3 11 6 ENE 1013,7 43 60 0,0
15.10.2018 17:00:00 24,6 9,7 25,8 22,1 17,6 16,9 4 2 10 5 E 1013,2 55 60 0,0
15.10.2018 16:00:00 24,4 9,3 27,5 21,9 17,1 16,9 5 3 13 7 NE 1013,1 16 60 0,0
15.10.2018 15:00:00 23,6 9,4 26,4 21,1 16,6 16,9 5 3 10 5 SSE 1013,4 65 60 0,0
15.10.2018 14:00:00 22,4 9,1 25,9 19,7 16,1 16,9 6 4 11 6 SSE 1013,9 43 60 0,0
15.10.2018 13:00:00 20,5 9,4 23,7 18,0 15,8 16,9 5 3 11 6 ESE 1014,6 44 60 0,0
15.10.2018 12:00:00 18,6 9,6 21,2 16,1 15,6 16,9 6 4 10 5 SE 1015,0 41 60 0,0
15.10.2018 11:00:00 15,0 10,4 17,5 14,4 15,6 16,9 4 2 7 4 SW 1015,1 25 53 0,0
15.10.2018 10:00:00 12,2 9,8 13,5 13,4 15,7 16,9 4 2 6 3 SSW 1015,2 22 10 0,0
15.10.2018 09:00:00 11,0 10,0 10,6 13,0 15,9 16,9 3 2 3 2 SW 1014,8 12 0 0,0
15.10.2018 08:00:00 10,2 9,1 8,9 13,0 16,1 16,9 3 1 4 2 NE 1014,4 21 0 0,0
15.10.2018 07:00:00 10,6 9,5 8,2 13,4 16,4 16,8 2 1 4 2 WNW 1013,6 22 0 0,0
15.10.2018 06:00:00 10,8 9,8 8,3 13,8 16,6 16,8 3 2 5 3 NNW 1013,3 21 0 0,0
15.10.2018 05:00:00 11,5 9,9 8,6 14,3 16,8 16,8 2 1 5 3 E 1013,0 22 0 0,0
15.10.2018 04:00:00 12,7 11,0 10,8 14,5 17,0 16,8 2 1 6 3 SSW 1012,7 27 0 0,0
15.10.2018 03:00:00 11,9 10,5 10,5 14,5 17,2 16,8 2 1 4 2 SW 1012,8 22 0 0,0
15.10.2018 02:00:00 12,3 10,3 9,2 15,0 17,5 16,8 4 2 5 3 W 1012,4 24 0 0,0
15.10.2018 01:00:00 13,4 10,6 9,8 15,5 17,7 16,8 3 2 6 3 WNW 1012,1 34 0 0,0
15.10.2018 00:00:00 13,2 10,5 10,2 16,1 18,0 16,8 5 3 8 5 N 1012,1 35 0 0,0
14.10.2018 23:00:00 14,7 11,0 11,4 16,7 18,2 16,8 5 3 7 4 WNW 1011,9 36 0 0,0
14.10.2018 22:00:00 16,2 12,1 11,4 17,4 18,3 16,8 4 2 5 3 WSW 1011,5 37 0 0,0
14.10.2018 21:00:00 17,2 12,5 12,5 18,3 18,4 16,8 2 1 10 5 SW 1011,3 42 0 0,0
14.10.2018 20:00:00 18,5 11,0 14,6 19,4 18,4 16,8 5 3 14 8 ENE 1010,9 52 0 0,0
14.10.2018 19:00:00 20,1 11,0 17,9 20,6 18,3 16,8 11 6 14 8 NNE 1010,8 50 29 0,0
14.10.2018 18:00:00 23,7 11,1 23,1 21,6 18,0 16,8 5 3 13 7 NE 1010,4 48 60 0,0
14.10.2018 17:00:00 23,8 10,6 25,6 22,1 17,5 16,8 9 5 16 9 E 1010,6 57 60 0,0
14.10.2018 16:00:00 24,0 11,1 26,4 21,9 17,1 16,8 7 4 14 8 E 1010,9 45 60 0,0
14.10.2018 15:00:00 23,4 11,3 26,2 21,1 16,6 16,8 10 5 17 9 E 1011,3 42 60 0,0
14.10.2018 14:00:00 21,9 11,0 26,0 19,7 16,1 16,8 9 5 16 9 E 1012,2 36 60 0,0
14.10.2018 13:00:00 20,1 10,5 24,3 18,0 15,8 16,8 8 5 14 8 E 1013,3 33 60 0,0
14.10.2018 12:00:00 17,9 9,7 21,6 16,1 15,6 16,7 8 4 15 8 E 1013,8 26 60 0,0
14.10.2018 11:00:00 16,0 9,3 18,0 14,4 15,6 16,7 7 4 11 6 ESE 1014,2 29 60 0,0
14.10.2018 10:00:00 13,9 9,3 15,6 13,0 15,7 16,7 4 2 6 3 ESE 1014,5 26 60 0,0
14.10.2018 09:00:00 10,6 8,4 10,6 12,4 16,0 16,7 3 2 5 3 SSE 1014,9 18 44 0,0
14.10.2018 08:00:00 9,4 8,3 6,7 12,7 16,2 16,7 0 0 3 2 N 1014,7 27 0 0,0
14.10.2018 07:00:00 9,5 8,2 7,0 13,1 16,5 16,7 3 1 8 4 ESE 1014,8 22 0 0,0
14.10.2018 06:00:00 10,3 9,1 7,2 13,6 16,8 16,7 3 1 4 2 NE 1015,3 24 0 0,0
14.10.2018 05:00:00 9,8 8,2 7,5 14,0 17,0 16,7 2 1 5 3 SE 1015,3 19 0 0,0

tt = Température de l'air
td = dewpoint
tt 5cm = Température de l'air 5cm
tt -5cm = Température de l'air -5cm
tt -20cm = Température de l'air -20cm
tt -100cm = Température de l'air -100cm
ff = Vitesse du vent
fx = gusts
dd = Direction du vent
ppp = reduced air pressure
vv = visibility
sd = Ensoleillement
rr = Quantités de précipitations

stations d'obs. à proximité